Date String (YYYY-MM-DD hh:mm:ss) UTC,Instrument flags,Ambient pressure (hPa),Sample flow (lpm),Bypass flow (lpm),Sample temperature (°C),Ambient temperature (°C),ASC tube jacket temperature (°C),LED temperature (°C),Box temperature (°C),Sample RH (%),Span deviation,Mass concentration (μg/m³),Mass concentration (μg/m³),Mass concentration (μg/m³)
DateTimeUTC,F1_M11,P_M11,Q1_M11,Q2_M11,T1_M11,T2_M11,T3_M11,T4_M11,T5_M11,U1_M11,ZSPAN_M11,X2_M11,X0_M11,X1_M11
2022-11-22 14:00:00,,0829.5,4.98,0.00,22.0,20.6,00.0,30.9,23.8,08.0,0000.0,0004.07,0008.32,0003.79
2022-11-22 14:01:00,,0829.5,5.01,0.00,22.0,20.5,00.0,30.9,23.8,07.9,0000.0,0004.04,0008.81,0003.77
2022-11-22 14:02:00,,0829.5,5.01,0.00,22.0,20.5,00.0,30.9,23.8,07.9,0000.0,0004.00,0008.16,0003.76
2022-11-22 14:03:00,,0829.5,5.01,0.00,21.9,20.4,00.0,30.9,23.7,07.9,0000.0,0003.99,0007.87,0003.76
2022-11-22 14:04:00,,0829.5,4.99,0.00,21.9,20.4,00.0,30.9,23.7,07.9,0000.0,0003.98,0007.78,0003.76
2022-11-22 14:05:00,,0829.5,5.00,0.00,21.9,20.3,00.0,30.9,23.6,07.8,0000.0,0003.97,0007.09,0003.74
2022-11-22 14:06:00,,0829.5,5.00,0.00,21.9,20.3,00.0,30.9,23.6,07.8,0000.0,0003.89,0006.90,0003.68
2022-11-22 14:07:00,,0829.5,4.99,0.00,21.8,20.4,00.0,30.9,23.6,07.7,0000.0,0003.83,0006.80,0003.63
2022-11-22 14:08:00,,0829.6,5.00,0.00,21.9,21.1,00.0,30.8,23.7,07.6,0000.0,0003.78,0006.81,0003.58
2022-11-22 14:09:00,,0829.6,5.01,0.00,22.0,22.0,00.0,30.8,23.9,07.6,0000.0,0003.72,0006.74,0003.52
2022-11-22 14:10:00,,0829.5,4.98,0.00,22.1,22.0,00.0,30.8,24.0,07.4,0000.0,0003.62,0006.39,0003.43
2022-11-22 14:11:00,,0829.6,5.01,0.00,22.1,21.6,00.0,30.9,24.0,07.3,0000.0,0003.49,0006.00,0003.32
2022-11-22 14:12:00,,0829.6,5.01,0.00,22.1,21.4,00.0,30.9,23.9,07.2,0000.0,0003.41,0005.08,0003.20
2022-11-22 14:13:00,,0829.6,4.99,0.00,22.0,21.2,00.0,30.9,23.9,07.2,0000.0,0003.33,0004.80,0003.10
2022-11-22 14:14:00,,0829.6,5.00,0.00,22.0,21.1,00.0,30.9,23.9,07.1,0000.0,0003.22,0004.80,0002.95
2022-11-22 14:15:00,,0829.6,5.01,0.00,22.0,20.9,00.0,30.9,23.9,07.1,0000.0,0003.12,0005.43,0002.81
2022-11-22 14:16:00,,0829.6,4.99,0.00,22.0,20.8,00.0,30.9,23.8,07.0,0000.0,0003.01,0005.29,0002.69
2022-11-22 14:17:00,,0829.5,5.01,0.00,22.0,20.7,00.0,30.9,23.8,07.0,0000.0,0002.91,0005.20,0002.58
2022-11-22 14:18:00,,0829.5,5.00,0.00,22.0,20.7,00.0,30.9,23.8,07.0,0000.0,0002.84,0005.22,0002.48
2022-11-22 14:19:00,,0829.5,4.99,0.00,22.0,20.6,00.0,30.9,23.8,07.0,0000.0,0002.80,0005.85,0002.38
2022-11-22 14:20:00,,0829.5,5.01,0.00,21.9,20.6,00.0,30.9,23.7,07.0,0000.0,0002.74,0006.53,0002.33
2022-11-22 14:21:00,,0829.5,4.98,0.00,21.9,20.5,00.0,30.9,23.7,07.1,0000.0,0002.76,0007.15,0002.31
2022-11-22 14:22:00,,0829.5,5.02,0.00,21.9,20.5,00.0,30.9,23.7,07.1,0000.0,0002.86,0007.41,0002.34
2022-11-22 14:23:00,,0829.5,4.99,0.00,21.9,20.5,00.0,30.9,23.7,07.1,0000.0,0002.87,0007.34,0002.41
2022-11-22 14:24:00,,0829.6,5.01,0.00,21.9,20.4,00.0,30.9,23.6,07.1,0000.0,0002.95,0007.43,0002.47
2022-11-22 14:25:00,,0829.6,5.01,0.00,21.9,20.4,00.0,30.9,23.6,07.2,0000.0,0003.05,0007.33,0002.51
2022-11-22 14:26:00,,0829.6,4.99,0.00,21.8,20.4,00.0,30.9,23.6,07.2,0000.0,0003.11,0006.78,0002.54
2022-11-22 14:27:00,,0829.6,5.00,0.00,21.8,20.4,00.0,30.9,23.6,07.1,0000.0,0003.14,0006.85,0002.58
2022-11-22 14:28:00,,0829.5,5.00,0.00,21.9,21.1,00.0,30.8,23.7,07.1,0000.0,0003.18,0007.02,0002.60
2022-11-22 14:29:00,,0829.5,5.00,0.00,22.0,22.1,00.0,30.8,24.0,07.1,0000.0,0003.20,0007.02,0002.65
2022-11-22 14:30:00,,0829.6,5.00,0.00,22.1,22.4,00.0,30.8,24.2,07.0,0000.0,0003.18,0006.26,0002.70
2022-11-22 14:31:00,,0829.6,4.98,0.00,22.1,22.0,00.0,30.9,24.1,07.0,0000.0,0003.17,0005.57,0002.69
2022-11-22 14:32:00,,0829.6,5.02,0.00,22.1,21.8,00.0,30.9,24.1,07.1,0000.0,0003.14,0004.88,0002.67
2022-11-22 14:33:00,,0829.6,4.99,0.00,22.1,21.5,00.0,31.0,24.1,07.0,0000.0,0003.07,0004.64,0002.65
2022-11-22 14:34:00,,0829.6,4.99,0.00,22.1,21.3,00.0,31.0,24.0,07.1,0000.0,0003.02,0004.59,0002.61
2022-11-22 14:35:00,,0829.8,5.02,0.00,22.1,21.2,00.0,31.0,24.0,07.1,0000.0,0002.92,0004.34,0002.56
2022-11-22 14:36:00,,0829.7,4.99,0.00,22.1,21.1,00.0,31.0,24.0,07.1,0000.0,0002.86,0004.18,0002.51
2022-11-22 14:37:00,,0829.9,5.01,0.00,22.1,21.0,00.0,31.0,23.9,07.1,0000.0,0002.86,0004.37,0002.48
2022-11-22 14:38:00,,0829.9,5.01,0.00,22.1,20.9,00.0,31.0,23.9,07.1,0000.0,0002.82,0004.92,0002.43
2022-11-22 14:39:00,,0829.6,4.99,0.00,22.1,20.9,00.0,31.0,23.9,07.1,0000.0,0002.77,0005.03,0002.41
2022-11-22 14:40:00,,0829.6,5.01,0.00,22.1,20.8,00.0,31.0,23.9,07.1,0000.0,0002.73,0005.01,0002.37
2022-11-22 14:41:00,,0829.6,4.99,0.00,22.1,20.8,00.0,31.0,23.7,07.2,0000.0,0002.71,0004.88,0002.33
2022-11-22 14:42:00,,0829.6,5.02,0.00,22.0,20.7,00.0,31.0,23.7,07.2,0000.0,0002.71,0004.83,0002.33
2022-11-22 14:43:00,,0829.6,4.98,0.00,22.0,20.7,00.0,31.0,23.8,07.2,0000.0,0002.72,0004.88,0002.33
2022-11-22 14:44:00,,0829.6,5.01,0.00,22.0,20.7,00.0,31.0,23.8,07.2,0000.0,0002.72,0005.11,0002.32
2022-11-22 14:45:00,,0829.6,5.00,0.00,22.0,20.7,00.0,31.0,23.7,07.1,0000.0,0002.75,0005.47,0002.32
2022-11-22 14:46:00,,0829.6,5.00,0.00,22.0,20.7,00.0,31.0,23.7,07.1,0000.0,0002.79,0005.58,0002.33
2022-11-22 14:47:00,,0829.6,5.01,0.00,22.0,20.6,00.0,30.9,23.7,07.1,0000.0,0002.79,0005.75,0002.34
2022-11-22 14:48:00,,0829.7,5.00,0.00,22.0,20.6,00.0,30.9,23.7,07.1,0000.0,0002.80,0005.72,0002.34
2022-11-22 14:49:00,,0829.6,4.99,0.00,22.0,20.6,00.0,30.9,23.7,07.1,0000.0,0002.82,0005.25,0002.37
2022-11-22 14:50:00,,0829.6,5.00,0.00,22.0,20.6,00.0,30.9,23.7,07.0,0000.0,0002.88,0004.92,0002.42
2022-11-22 14:51:00,,0829.7,5.00,0.00,22.0,20.6,00.0,30.9,23.6,07.0,0000.0,0002.86,0005.15,0002.44
2022-11-22 14:52:00,,0829.6,5.01,0.00,21.9,20.6,00.0,30.9,23.6,07.0,0000.0,0002.91,0005.63,0002.45
2022-11-22 14:53:00,,0829.6,4.99,0.00,21.9,20.5,00.0,30.9,23.6,06.9,0000.0,0002.92,0005.62,0002.47
2022-11-22 14:54:00,,0829.7,5.00,0.00,21.9,20.5,00.0,30.9,23.6,06.9,0000.0,0002.95,0005.61,0002.51
2022-11-22 14:55:00,,0829.6,4.99,0.00,21.9,20.5,00.0,30.9,23.6,07.0,0000.0,0002.99,0005.45,0002.53
2022-11-22 14:56:00,,0829.7,5.02,0.00,21.9,20.5,00.0,30.9,23.5,06.9,0000.0,0003.02,0005.19,0002.55
2022-11-22 14:57:00,,0829.7,4.99,0.00,21.9,20.5,00.0,30.9,23.5,07.1,0000.0,0003.04,0005.21,0002.57
2022-11-22 14:58:00,,0829.7,5.00,0.00,21.9,20.5,00.0,30.9,23.6,07.1,0000.0,0003.05,0005.21,0002.57
2022-11-22 14:59:00,,0829.7,4.99,0.00,21.9,20.5,00.0,30.9,23.7,07.1,0000.0,0002.98,0006.20,0002.56
